Regional Weather Roundup
Issued by NWS

Home | Current Version | Previous Version | Graphics & Text | Print | Product List | Glossary On
Versions: 1 2 3 4 5 6 7 8 9 10 11 12 13 14 15 16 17 18 19 20 21 22 23 24 25 26 27 28 29 30 31 32 33 34 35 36 37 38 39 40 41 42 43 44 45 46 47 48 49 50
000
ASUS43 KDMX 301403
RWRIA

WEATHER ROUNDUP FOR IOWA
NATIONAL WEATHER SERVICE DES MOINES IA
900 AM CDT SAT JUL 30 2016

NOTE: "FAIR" INDICATES FEW OR NO CLOUDS BELOW 12,000 FEET WITH NO
SIGNIFICANT WEATHER AND/OR OBSTRUCTIONS TO VISIBILITY.

* - THESE STATIONS ARE NOT NWS STATIONS...THUS NOT UNDER NWS
QUALITY CONTROL.  THEY ALSO DO NOT REPORT WEATHER SUCH
AS PRECIPITATION OR FOG.

IAZ001>003-012>014-020>022-031>034-043>046-301500-
   NORTHWEST IOWA

CITY           SKY/WX    TMP DP  RH WIND       PRES   REMARKS
CARROLL *      CLOUDY    68  64  88 CALM      30.04S
CHEROKEE *     SUNNY     66  62  86 CALM      30.05S
DENISON *      MOSUNNY   66  64  94 CALM      30.04R
LE MARS *      SUNNY     68  63  83 CALM      30.06S
SHELDON *      SUNNY     66  59  77 CALM      30.04S
SIOUX CITY     SUNNY     69  62  78 E5        30.04S
SPENCER        SUNNY     68  55  63 CALM      30.05S
STORM LAKE *   MOSUNNY   66  61  82 CALM      30.06S
$$

IAZ055>058-069>071-079>083-090>094-301500-
   SOUTHWEST IOWA

CITY           SKY/WX    TMP DP  RH WIND       PRES   REMARKS
ATLANTIC *     MOSUNNY   66  64  94 CALM      30.04S
CLARINDA *       N/A     68  64  88 MISG      30.06S
COUNCIL BLFS * MOSUNNY   68  64  88 VRB3      30.06R
CRESTON *      MOSUNNY   70  64  83 CALM      30.06R
HARLAN  *      MOSUNNY   66  64  94 CALM      30.08S
LAMONI         CLOUDY    68  65  90 N6        30.03R
RED OAK *      SUNNY     68  64  88 CALM      30.05S
SHENANDOAH *     N/A     66  66 100 CALM      30.05S
$$

IAZ047>049-059>061-072>074-084-301500-
   CENTRAL IOWA

CITY           SKY/WX    TMP DP  RH WIND       PRES   REMARKS
AMES           CLOUDY    69  67  93 VRB3      30.03R
ANKENY *         N/A    N/A N/A N/A MISG        N/A
BOONE *        CLOUDY    68  66  94 E5        30.03R
CHARITON *       N/A    N/A N/A N/A MISG        N/A
DES MOINES     CLOUDY    71  65  81 NE3       30.02R
GRINNELL*      CLOUDY    69  65  89 CALM      30.02S FOG
KNOXVILLE *    CLOUDY    68  64  88 CALM      30.01R
MARSHALLTOWN   CLOUDY    67  67 100 NE5       30.02R FOG
NEWTON *       PTSUNNY   68  68 100 NE3       30.02R
PERRY *        CLOUDY    70  67  89 CALM      30.04R
$$

IAZ004>006-015-016-023>025-035-036-301500-
   NORTH CENTRAL IOWA

CITY           SKY/WX    TMP DP  RH WIND       PRES   REMARKS
ALGONA *       CLOUDY    68  63  83 CALM      30.05R
ESTHERVILLE    SUNNY     67  59  75 CALM      30.05R
FORT DODGE *   PTSUNNY   70  64  83 E3        30.04S
MASON CITY     CLOUDY    67  65  93 CALM      30.06R
FOREST CITY *  PTSUNNY   68  64  88 SE3       30.04R
IOWA FALLS *   CLOUDY    67  65  92 N3        30.05R
$$

IAZ007>011-017>019-026>030-037>042-050>054-066-301500-
   NORTHEAST IOWA

CITY           SKY/WX    TMP DP  RH WIND       PRES   REMARKS
CEDAR RAPIDS   CLOUDY    70  68  93 NE6       29.99S
CHARLES CITY * CLOUDY    68  68 100 E6        30.04R
CLINTON *      PTSUNNY   71  67  87 NE9       30.00S
DECORAH *      CLOUDY    68  64  88 E6        30.03S
DUBUQUE        CLOUDY    66  65  96 NE6       30.03R FOG
MONTICELLO *   PTSUNNY   70  66  88 NE6       30.00S
OELWEIN *      MOSUNNY   70  66  88 NE5       30.02F
WATERLOO       CLOUDY    69  64  84 SE5       30.01S
$$

IAZ064-065-067-068-078-301500-
   EAST CENTRAL IOWA

CITY           SKY/WX    TMP DP  RH WIND       PRES   REMARKS
DAVENPORT      CLOUDY    69  65  86 N8        30.00S
IOWA CITY      CLOUDY    72  66  81 NE6       30.00S
MT. PLEASANT * CLOUDY    72  72  99 CALM      30.00R FOG
MUSCATINE *    MOSUNNY   72  66  83 N3        29.99S
QUAD CITIES    CLOUDY    72  66  81 NE5       29.99R
$$

IAZ062-063-075>077-085>089-095>099-301500-
   SOUTHEAST IOWA

CITY           SKY/WX    TMP DP  RH WIND       PRES   REMARKS
BURLINGTON     PTSUNNY   72  68  87 CALM      29.99R
FAIRFIELD *    CLOUDY    70  66  88 CALM      30.00R
KEOKUK *       CLOUDY    70  66  88 W3        30.00R
OSKALOOSA *    CLOUDY    68  67  96 N3        30.02  FOG
CENTERVILLE *  CLOUDY    72  66  83 CALM      30.03R
OTTUMWA        CLOUDY    70  66  87 N3        30.00S
WASHINGTON *   CLOUDY    70  68  94 NE6       30.01R
$$

ABBREVIATIONS USED IN REMARKS
   TC - TEMPERATURES IN CELSIUS
  WCI - WIND CHILL INDEX
   HX - HEAT INDEX
  VSB - VISIBILITY
$$




USA.gov is the U.S. government's official web portal to all federal, state and local government web resources and services.